Year,Month,Day,Hour,Minute,Value (Times are PST for temperature in C)
2012,02,29,00,00,2.20
2012,02,29,00,01,2.20
2012,02,29,00,02,2.20
2012,02,29,00,03,2.20
2012,02,29,00,04,2.20
2012,02,29,00,05,2.20
2012,02,29,00,06,2.20
2012,02,29,00,07,2.20
2012,02,29,00,08,2.20
2012,02,29,00,09,2.20
2012,02,29,00,10,2.20
2012,02,29,00,11,2.20
2012,02,29,00,12,2.10
2012,02,29,00,17,2.10
2012,02,29,00,18,2.10
2012,02,29,00,19,2.10
2012,02,29,00,20,2.20
2012,02,29,00,21,2.20
2012,02,29,00,22,2.20
2012,02,29,00,23,2.20
2012,02,29,00,24,2.20
2012,02,29,00,25,2.20
2012,02,29,00,26,2.30
2012,02,29,00,27,2.30
2012,02,29,00,28,2.30
2012,02,29,00,29,2.30
2012,02,29,00,30,2.30
2012,02,29,00,31,2.30
2012,02,29,00,32,2.30
2012,02,29,00,33,2.30
2012,02,29,00,34,2.30
2012,02,29,00,35,2.30
2012,02,29,00,36,2.30
2012,02,29,00,37,2.40
2012,02,29,00,38,2.40
2012,02,29,00,39,2.40
2012,02,29,00,40,2.40
2012,02,29,00,41,2.40
2012,02,29,00,42,2.40
2012,02,29,00,43,2.40
2012,02,29,00,44,2.40
2012,02,29,00,45,2.40
2012,02,29,00,46,2.40
2012,02,29,00,47,2.40
2012,02,29,00,48,2.40
2012,02,29,00,49,2.40
2012,02,29,00,50,2.40
2012,02,29,00,51,2.40
2012,02,29,00,52,2.40
2012,02,29,00,53,2.40
2012,02,29,00,54,2.40
2012,02,29,00,55,2.40
2012,02,29,00,56,2.40
2012,02,29,00,57,2.40
2012,02,29,00,58,2.40
2012,02,29,00,59,2.50
2012,02,29,01,00,2.50
2012,02,29,01,01,2.50
2012,02,29,01,02,2.50
2012,02,29,01,03,2.50
2012,02,29,01,04,2.50
2012,02,29,01,05,2.50
2012,02,29,01,06,2.50
2012,02,29,01,07,2.50
2012,02,29,01,08,2.50
2012,02,29,01,09,2.50
2012,02,29,01,10,2.50
2012,02,29,01,11,2.50
2012,02,29,01,12,2.50
2012,02,29,01,13,2.50
2012,02,29,01,14,2.50
2012,02,29,01,15,2.60
2012,02,29,01,16,2.60
2012,02,29,01,17,2.60
2012,02,29,01,18,2.60
2012,02,29,01,19,2.60
2012,02,29,01,20,2.60
2012,02,29,01,21,2.60
2012,02,29,01,22,2.50
2012,02,29,01,23,2.50
2012,02,29,01,24,2.50
2012,02,29,01,25,2.50
2012,02,29,01,26,2.50
2012,02,29,01,27,2.50
2012,02,29,01,28,2.50
2012,02,29,01,29,2.50
2012,02,29,01,30,2.50
2012,02,29,01,31,2.50
2012,02,29,01,32,2.50
2012,02,29,01,33,2.40
2012,02,29,01,34,2.40
2012,02,29,01,35,2.40
2012,02,29,01,36,2.40
2012,02,29,01,37,2.40
2012,02,29,01,38,2.40
2012,02,29,01,39,2.40
2012,02,29,01,40,2.40
2012,02,29,01,41,2.40
2012,02,29,01,42,2.40
2012,02,29,01,43,2.40
2012,02,29,01,44,2.40
2012,02,29,01,45,2.40
2012,02,29,01,46,2.30
2012,02,29,01,47,2.30
2012,02,29,01,48,2.30
2012,02,29,01,49,2.30
2012,02,29,01,50,2.30
2012,02,29,01,51,2.30
2012,02,29,01,52,2.30
2012,02,29,01,53,2.30
2012,02,29,01,54,2.30
2012,02,29,01,55,2.30
2012,02,29,01,56,2.30
2012,02,29,01,57,2.30
2012,02,29,01,58,2.40
2012,02,29,01,59,2.40
2012,02,29,02,00,2.40
2012,02,29,02,01,2.30
2012,02,29,02,02,2.30
2012,02,29,02,03,2.40
2012,02,29,02,04,2.40
2012,02,29,02,05,2.40
2012,02,29,02,06,2.40
2012,02,29,02,07,2.40
2012,02,29,02,08,2.40
2012,02,29,02,09,2.40
2012,02,29,02,10,2.40
2012,02,29,02,11,2.40
2012,02,29,02,12,2.40
2012,02,29,02,13,2.40
2012,02,29,02,14,2.40
2012,02,29,02,15,2.40
2012,02,29,02,16,2.30
2012,02,29,02,17,2.40
2012,02,29,02,18,2.40
2012,02,29,02,19,2.40
2012,02,29,02,20,2.40
2012,02,29,02,21,2.30
2012,02,29,02,22,2.30
2012,02,29,02,23,2.30
2012,02,29,02,24,2.30
2012,02,29,02,25,2.30
2012,02,29,02,26,2.30
2012,02,29,02,27,2.30
2012,02,29,02,28,2.30
2012,02,29,02,29,2.20
2012,02,29,02,30,2.20
2012,02,29,02,31,2.20
2012,02,29,02,32,2.20
2012,02,29,02,33,2.20
2012,02,29,02,34,2.20
2012,02,29,02,35,2.20
2012,02,29,02,36,2.20
2012,02,29,02,37,2.20
2012,02,29,02,38,2.20
2012,02,29,02,39,2.20
2012,02,29,02,40,2.20
2012,02,29,02,41,2.20
2012,02,29,02,42,2.20
2012,02,29,02,43,2.20
2012,02,29,02,44,2.20
2012,02,29,02,45,2.20
2012,02,29,02,46,2.10
2012,02,29,02,47,2.10
2012,02,29,02,48,2.10
2012,02,29,02,49,2.10
2012,02,29,02,50,2.10
2012,02,29,02,51,2.10
2012,02,29,02,52,2.10
2012,02,29,02,53,2.00
2012,02,29,02,54,2.00
2012,02,29,02,55,2.00
2012,02,29,02,56,2.00
2012,02,29,02,57,2.00
2012,02,29,02,58,2.00
2012,02,29,02,59,2.00
2012,02,29,03,00,2.00
2012,02,29,03,01,2.00
2012,02,29,03,02,2.00
2012,02,29,03,03,2.00
2012,02,29,03,04,2.10
2012,02,29,03,05,2.10
2012,02,29,03,06,2.20
2012,02,29,03,07,2.20
2012,02,29,03,08,2.20
2012,02,29,03,09,2.30
2012,02,29,03,10,2.30
2012,02,29,03,11,2.30
2012,02,29,03,12,2.30
2012,02,29,03,13,2.30
2012,02,29,03,14,2.30
2012,02,29,03,15,2.20
2012,02,29,03,16,2.20
2012,02,29,03,17,2.10
2012,02,29,03,18,2.10
2012,02,29,03,19,2.00
2012,02,29,03,20,2.00
2012,02,29,03,21,1.90
2012,02,29,03,22,1.80
2012,02,29,03,23,1.80
2012,02,29,03,24,1.80
2012,02,29,03,25,1.70
2012,02,29,03,26,1.70
2012,02,29,03,27,1.60
2012,02,29,03,28,1.60
2012,02,29,03,29,1.60
2012,02,29,03,30,1.50
2012,02,29,03,31,1.50
2012,02,29,03,32,1.50
2012,02,29,03,33,1.40
2012,02,29,03,34,1.40
2012,02,29,03,35,1.40
2012,02,29,03,36,1.30
2012,02,29,03,37,1.30
2012,02,29,03,38,1.30
2012,02,29,03,39,1.30
2012,02,29,03,40,1.30
2012,02,29,03,41,1.20
2012,02,29,03,42,1.20
2012,02,29,03,43,1.20
2012,02,29,03,44,1.20
2012,02,29,03,45,1.20
2012,02,29,03,46,1.20
2012,02,29,03,47,1.20
2012,02,29,03,48,1.20
2012,02,29,03,49,1.10
2012,02,29,03,50,1.10
2012,02,29,03,51,1.10
2012,02,29,03,52,1.10
2012,02,29,03,53,1.10
2012,02,29,03,54,1.10
2012,02,29,03,55,1.10
2012,02,29,03,56,1.10
2012,02,29,03,57,1.10
2012,02,29,03,58,1.10
2012,02,29,03,59,1.00
2012,02,29,04,00,1.10
2012,02,29,04,01,1.10
2012,02,29,04,02,1.10
2012,02,29,04,03,1.20
2012,02,29,04,04,1.20
2012,02,29,04,05,1.20
2012,02,29,04,06,1.20
2012,02,29,04,07,1.20
2012,02,29,04,08,1.20
2012,02,29,04,09,1.20
2012,02,29,04,10,1.20
2012,02,29,04,11,1.20
2012,02,29,04,12,1.20
2012,02,29,04,13,1.10
2012,02,29,04,14,1.10
2012,02,29,04,15,1.10
2012,02,29,04,16,1.10
2012,02,29,04,17,1.10
2012,02,29,04,18,1.10
2012,02,29,04,19,1.10
2012,02,29,04,20,1.10
2012,02,29,04,21,1.10
2012,02,29,04,22,1.10
2012,02,29,04,23,1.10
2012,02,29,04,24,1.00
2012,02,29,04,25,1.00
2012,02,29,04,26,0.90
2012,02,29,04,27,0.90
2012,02,29,04,28,0.90
2012,02,29,04,29,0.80
2012,02,29,04,30,0.80
2012,02,29,04,31,0.80
2012,02,29,04,32,0.80
2012,02,29,04,33,0.70
2012,02,29,04,34,0.70
2012,02,29,04,35,0.70
2012,02,29,04,36,0.70
2012,02,29,04,37,0.60
2012,02,29,04,38,0.60
2012,02,29,04,39,0.60
2012,02,29,04,40,0.50
2012,02,29,04,41,0.50
2012,02,29,04,42,0.40
2012,02,29,04,43,0.40
2012,02,29,04,44,0.40
2012,02,29,04,45,0.40
2012,02,29,04,46,0.40
2012,02,29,04,47,0.30
2012,02,29,04,48,0.30
2012,02,29,04,49,0.30
2012,02,29,04,50,0.30
2012,02,29,04,51,0.30
2012,02,29,04,52,0.20
2012,02,29,04,53,0.20
2012,02,29,04,54,0.20
2012,02,29,04,55,0.20
2012,02,29,04,56,0.10
2012,02,29,04,57,0.10
2012,02,29,04,58,0.10
2012,02,29,04,59,0.10
2012,02,29,05,00,0.00
2012,02,29,05,01,0.00
2012,02,29,05,02,0.00
2012,02,29,05,03,-0.10
2012,02,29,05,04,-0.10
2012,02,29,05,05,-0.10
2012,02,29,05,06,-0.10
2012,02,29,05,07,-0.20
2012,02,29,05,08,-0.20
2012,02,29,05,09,-0.20
2012,02,29,05,10,-0.20
2012,02,29,05,11,-0.20
2012,02,29,05,12,-0.20
2012,02,29,05,13,-0.20
2012,02,29,05,14,-0.30
2012,02,29,05,15,-0.30
2012,02,29,05,16,-0.30
2012,02,29,05,17,-0.30
2012,02,29,05,18,-0.30
2012,02,29,05,19,-0.30
2012,02,29,05,20,-0.30
2012,02,29,05,21,-0.30
2012,02,29,05,22,-0.30
2012,02,29,05,23,-0.30
2012,02,29,05,24,-0.30
2012,02,29,05,25,-0.30
2012,02,29,05,26,-0.30
2012,02,29,05,27,-0.30
2012,02,29,05,28,-0.40
2012,02,29,05,29,-0.40
2012,02,29,05,30,-0.40
2012,02,29,05,31,-0.40
2012,02,29,05,32,-0.40
2012,02,29,05,33,-0.40
2012,02,29,05,34,-0.40
2012,02,29,05,35,-0.40
2012,02,29,05,36,-0.40
2012,02,29,05,37,-0.40
2012,02,29,05,38,-0.30
2012,02,29,05,39,-0.30
2012,02,29,05,40,-0.30
2012,02,29,05,41,-0.30
2012,02,29,05,42,-0.30
2012,02,29,05,43,-0.30
2012,02,29,05,44,-0.30
2012,02,29,05,45,-0.40
2012,02,29,05,46,-0.40
2012,02,29,05,47,-0.40
2012,02,29,05,48,-0.30
2012,02,29,05,49,-0.30
2012,02,29,05,50,-0.30
2012,02,29,05,51,-0.30
2012,02,29,05,52,-0.30
2012,02,29,05,53,-0.30
2012,02,29,05,54,-0.30
2012,02,29,05,55,-0.30
2012,02,29,05,56,-0.30
2012,02,29,05,57,-0.30
2012,02,29,05,58,-0.30
2012,02,29,05,59,-0.30
2012,02,29,06,00,-0.30
2012,02,29,06,01,-0.30
2012,02,29,06,02,-0.30
2012,02,29,06,03,-0.30
2012,02,29,06,04,-0.30
2012,02,29,06,05,-0.30
2012,02,29,06,06,-0.40
2012,02,29,06,07,-0.40
2012,02,29,06,08,-0.40
2012,02,29,06,09,-0.40
2012,02,29,06,10,-0.40
2012,02,29,06,11,-0.40
2012,02,29,06,12,-0.40
2012,02,29,06,13,-0.40
2012,02,29,06,14,-0.40
2012,02,29,06,15,-0.40
2012,02,29,06,16,-0.40
2012,02,29,06,17,-0.40
2012,02,29,06,18,-0.40
2012,02,29,06,19,-0.40
2012,02,29,06,20,-0.40
2012,02,29,06,21,-0.40
2012,02,29,06,22,-0.40
2012,02,29,06,23,-0.40
2012,02,29,06,24,-0.40
2012,02,29,06,25,-0.40
2012,02,29,06,26,-0.40
2012,02,29,06,27,-0.30
2012,02,29,06,28,-0.30
2012,02,29,06,29,-0.30
2012,02,29,06,30,-0.30
2012,02,29,06,31,-0.30
2012,02,29,06,32,-0.30
2012,02,29,06,33,-0.30
2012,02,29,06,34,-0.30
2012,02,29,06,35,-0.30
2012,02,29,06,36,-0.30
2012,02,29,06,37,-0.30
2012,02,29,06,38,-0.30
2012,02,29,06,39,-0.30
2012,02,29,06,40,-0.30
2012,02,29,06,41,-0.30
2012,02,29,06,42,-0.20
2012,02,29,06,43,-0.20
2012,02,29,06,44,-0.20
2012,02,29,06,45,-0.20
2012,02,29,06,46,-0.20
2012,02,29,06,47,-0.20
2012,02,29,06,48,-0.20
2012,02,29,06,49,-0.20
2012,02,29,06,50,-0.20
2012,02,29,06,51,-0.20
2012,02,29,06,52,-0.20
2012,02,29,06,53,-0.20
2012,02,29,06,54,-0.20
2012,02,29,06,55,-0.20
2012,02,29,06,56,-0.20
2012,02,29,06,57,-0.20
2012,02,29,06,58,-0.20
2012,02,29,06,59,-0.20
2012,02,29,07,00,-0.20
2012,02,29,07,01,-0.20
2012,02,29,07,02,-0.20
2012,02,29,07,03,-0.20
2012,02,29,07,04,-0.20
2012,02,29,07,05,-0.10
2012,02,29,07,06,-0.10
2012,02,29,07,07,-0.10
2012,02,29,07,08,-0.10
2012,02,29,07,09,-0.10
2012,02,29,07,10,-0.10
2012,02,29,07,11,-0.10
2012,02,29,07,12,-0.10
2012,02,29,07,13,-0.10
2012,02,29,07,14,-0.10
2012,02,29,07,15,-0.10
2012,02,29,07,16,-0.10
2012,02,29,07,17,-0.10
2012,02,29,07,18,0.00
2012,02,29,07,19,0.00
2012,02,29,07,20,0.00
2012,02,29,07,21,0.00
2012,02,29,07,22,0.00
2012,02,29,07,23,0.00
2012,02,29,07,24,0.00
2012,02,29,07,25,0.00
2012,02,29,07,26,0.10
2012,02,29,07,27,0.10
2012,02,29,07,28,0.10
2012,02,29,07,29,0.10
2012,02,29,07,30,0.10
2012,02,29,07,31,0.10
2012,02,29,07,32,0.10
2012,02,29,07,33,0.10
2012,02,29,07,34,0.10
2012,02,29,07,35,0.10
2012,02,29,07,36,0.10
2012,02,29,07,37,0.10
2012,02,29,07,38,0.10
2012,02,29,07,39,0.10
2012,02,29,07,40,0.10
2012,02,29,07,41,0.10
2012,02,29,07,42,0.20
2012,02,29,07,43,0.20
2012,02,29,07,44,0.20
2012,02,29,07,45,0.20
2012,02,29,07,46,0.20
2012,02,29,07,47,0.20
2012,02,29,07,48,0.20
2012,02,29,07,49,0.20
2012,02,29,07,50,0.30
2012,02,29,07,51,0.30
2012,02,29,07,52,0.30
2012,02,29,07,53,0.40
2012,02,29,07,54,0.40
2012,02,29,07,55,0.40
2012,02,29,07,56,0.40
2012,02,29,07,57,0.40
2012,02,29,07,58,0.40
2012,02,29,07,59,0.40
2012,02,29,08,00,0.40
2012,02,29,08,01,0.50
2012,02,29,08,02,0.50
2012,02,29,08,03,0.50
2012,02,29,08,04,0.50
2012,02,29,08,05,0.50
2012,02,29,08,06,0.50
2012,02,29,08,07,0.60
2012,02,29,08,08,0.60
2012,02,29,08,09,0.60
2012,02,29,08,10,0.60
2012,02,29,08,11,0.60
2012,02,29,08,12,0.60
2012,02,29,08,13,0.60
2012,02,29,08,14,0.60
2012,02,29,08,15,0.60
2012,02,29,08,16,0.70
2012,02,29,08,17,0.70
2012,02,29,08,18,0.70
2012,02,29,08,19,0.70
2012,02,29,08,20,0.70
2012,02,29,08,21,0.70
2012,02,29,08,22,0.70
2012,02,29,08,23,0.80
2012,02,29,08,24,0.80
2012,02,29,08,25,0.80
2012,02,29,08,26,0.80
2012,02,29,08,27,0.80
2012,02,29,08,28,0.80
2012,02,29,08,29,0.80
2012,02,29,08,30,0.90
2012,02,29,08,31,0.90
2012,02,29,08,32,0.90
2012,02,29,08,33,0.90
2012,02,29,08,34,0.90
2012,02,29,08,35,0.90
2012,02,29,08,36,0.90
2012,02,29,08,37,0.90
2012,02,29,08,38,1.00
2012,02,29,08,39,1.00
2012,02,29,08,40,1.00
2012,02,29,08,41,1.00
2012,02,29,08,42,1.00
2012,02,29,08,43,1.10
2012,02,29,08,44,1.10
2012,02,29,08,45,1.10
2012,02,29,08,46,1.10
2012,02,29,08,47,1.10
2012,02,29,08,48,1.10
2012,02,29,08,49,1.10
2012,02,29,08,50,1.10
2012,02,29,08,51,1.10
2012,02,29,08,52,1.10
2012,02,29,08,53,1.10
2012,02,29,08,54,1.10
2012,02,29,08,55,1.20
2012,02,29,08,56,1.20
2012,02,29,08,57,1.20
2012,02,29,08,58,1.20
2012,02,29,08,59,1.20
2012,02,29,09,00,1.20
2012,02,29,09,01,1.30
2012,02,29,09,02,1.30
2012,02,29,09,03,1.30
2012,02,29,09,04,1.30
2012,02,29,09,05,1.40
2012,02,29,09,06,1.40
2012,02,29,09,07,1.40
2012,02,29,09,08,1.40
2012,02,29,09,09,1.50
2012,02,29,09,10,1.60
2012,02,29,09,11,1.60
2012,02,29,09,12,1.60
2012,02,29,09,13,1.60
2012,02,29,09,14,1.60
2012,02,29,09,15,1.60
2012,02,29,09,16,1.60
2012,02,29,09,17,1.60
2012,02,29,09,18,1.60
2012,02,29,09,19,1.60
2012,02,29,09,20,1.70
2012,02,29,09,21,1.70
2012,02,29,09,22,1.70
2012,02,29,09,23,1.70
2012,02,29,09,24,1.70
2012,02,29,09,25,1.80
2012,02,29,09,26,1.80
2012,02,29,09,27,1.80
2012,02,29,09,28,1.80
2012,02,29,09,29,1.80
2012,02,29,09,30,1.90
2012,02,29,09,31,1.90
2012,02,29,09,32,1.90
2012,02,29,09,33,1.90
2012,02,29,09,34,1.90
2012,02,29,09,35,1.90
2012,02,29,09,36,1.90
2012,02,29,09,37,2.00
2012,02,29,09,38,2.00
2012,02,29,09,39,2.00
2012,02,29,09,40,2.00
2012,02,29,09,41,2.00
2012,02,29,09,42,2.10
2012,02,29,09,43,2.10
2012,02,29,09,44,2.10
2012,02,29,09,45,2.10
2012,02,29,09,46,2.10
2012,02,29,09,47,2.10
2012,02,29,09,48,2.10
2012,02,29,09,49,2.20
2012,02,29,09,50,2.20
2012,02,29,09,51,2.20
2012,02,29,09,52,2.20
2012,02,29,09,53,2.20
2012,02,29,09,54,2.30
2012,02,29,09,55,2.30
2012,02,29,09,56,2.30
2012,02,29,09,57,2.30
2012,02,29,09,58,2.30
2012,02,29,09,59,2.30
2012,02,29,10,00,2.30
2012,02,29,10,01,2.30
2012,02,29,10,02,2.40
2012,02,29,10,03,2.40
2012,02,29,10,04,2.40
2012,02,29,10,05,2.50
2012,02,29,10,06,2.50
2012,02,29,10,07,2.60
2012,02,29,10,08,2.60
2012,02,29,10,09,2.60
2012,02,29,10,10,2.60
2012,02,29,10,11,2.70
2012,02,29,10,12,2.70
2012,02,29,10,13,2.70
2012,02,29,10,14,2.70
2012,02,29,10,15,2.70
2012,02,29,10,16,2.70
2012,02,29,10,17,2.70
2012,02,29,10,18,2.70
2012,02,29,10,19,2.70
2012,02,29,10,20,2.70
2012,02,29,10,21,2.80
2012,02,29,10,22,2.80
2012,02,29,10,23,2.80
2012,02,29,10,24,2.80
2012,02,29,10,25,2.90
2012,02,29,10,26,2.90
2012,02,29,10,27,3.00
2012,02,29,10,28,3.00
2012,02,29,10,29,3.00
2012,02,29,10,30,2.90
2012,02,29,10,31,2.90
2012,02,29,10,32,2.90
2012,02,29,10,33,2.90
2012,02,29,10,34,3.00
2012,02,29,10,35,3.00
2012,02,29,10,36,3.00
2012,02,29,10,37,3.00
2012,02,29,10,38,3.00
2012,02,29,10,39,3.00
2012,02,29,10,40,3.10
2012,02,29,10,41,3.10
2012,02,29,10,42,3.10
2012,02,29,10,43,3.10
2012,02,29,10,44,3.10
2012,02,29,10,45,3.10
2012,02,29,10,46,3.20
2012,02,29,10,47,3.20
2012,02,29,10,48,3.20
2012,02,29,10,49,3.20
2012,02,29,10,50,3.30
2012,02,29,10,51,3.30
2012,02,29,10,52,3.30
2012,02,29,10,53,3.30
2012,02,29,10,54,3.40
2012,02,29,10,55,3.40
2012,02,29,10,56,3.40
2012,02,29,10,57,3.40
2012,02,29,10,58,3.40
2012,02,29,10,59,3.40
2012,02,29,11,00,3.40
2012,02,29,11,01,3.40
2012,02,29,11,02,3.40
2012,02,29,11,03,3.50
2012,02,29,11,04,3.50
2012,02,29,11,05,3.50
2012,02,29,11,06,3.50
2012,02,29,11,07,3.50
2012,02,29,11,08,3.50
2012,02,29,11,09,3.50
2012,02,29,11,10,3.50
2012,02,29,11,11,3.50
2012,02,29,11,12,3.50
2012,02,29,11,13,3.50
2012,02,29,11,14,3.50
2012,02,29,11,15,3.50
2012,02,29,11,16,3.50
2012,02,29,11,17,3.50
2012,02,29,11,18,3.50
2012,02,29,11,19,3.50
2012,02,29,11,20,3.50
2012,02,29,11,21,3.50
2012,02,29,11,22,3.50
2012,02,29,11,23,3.50
2012,02,29,11,24,3.50
2012,02,29,11,25,3.50
2012,02,29,11,26,3.60
2012,02,29,11,27,3.60
2012,02,29,11,28,3.60
2012,02,29,11,29,3.60
2012,02,29,11,30,3.60
2012,02,29,11,31,3.70
2012,02,29,11,32,3.70
2012,02,29,11,33,3.70
2012,02,29,11,34,3.80
2012,02,29,11,35,3.80
2012,02,29,11,36,3.80
2012,02,29,11,37,3.80
2012,02,29,11,38,3.80
2012,02,29,11,39,3.80
2012,02,29,11,40,3.90
2012,02,29,11,41,3.90
2012,02,29,11,42,3.90
2012,02,29,11,43,3.90
2012,02,29,11,44,4.00
2012,02,29,11,45,4.00
2012,02,29,11,46,4.00
2012,02,29,11,47,4.00
2012,02,29,11,48,4.00
2012,02,29,11,49,4.00
2012,02,29,11,50,4.00
2012,02,29,11,51,4.00
2012,02,29,11,52,4.00
2012,02,29,11,53,4.00
2012,02,29,11,54,4.00
2012,02,29,11,55,4.00
2012,02,29,11,56,4.00
2012,02,29,11,57,4.10
2012,02,29,11,58,4.10
2012,02,29,11,59,4.10
2012,02,29,12,00,4.20
2012,02,29,12,01,4.20
2012,02,29,12,02,4.30
2012,02,29,12,03,4.30
2012,02,29,12,04,4.40
2012,02,29,12,05,4.40
2012,02,29,12,06,4.40
2012,02,29,12,07,4.40
2012,02,29,12,08,4.40
2012,02,29,12,09,4.40
2012,02,29,12,10,4.40
2012,02,29,12,11,4.50
2012,02,29,12,12,4.50
2012,02,29,12,13,4.60
2012,02,29,12,14,4.60
2012,02,29,12,15,4.70
2012,02,29,12,16,4.70
2012,02,29,12,17,4.80
2012,02,29,12,18,4.80
2012,02,29,12,19,4.90
2012,02,29,12,20,5.00
2012,02,29,12,21,5.10
2012,02,29,12,22,5.20
2012,02,29,12,23,5.30
2012,02,29,12,24,5.30
2012,02,29,12,25,5.30
2012,02,29,12,26,5.30
2012,02,29,12,27,5.30
2012,02,29,12,28,5.30
2012,02,29,12,29,5.30
2012,02,29,12,30,5.40
2012,02,29,12,31,5.40
2012,02,29,12,32,5.40
2012,02,29,12,33,5.40
2012,02,29,12,34,5.40
2012,02,29,12,35,5.40
2012,02,29,12,36,5.40
2012,02,29,12,37,5.40
2012,02,29,12,38,5.50
2012,02,29,12,39,5.50
2012,02,29,12,40,5.50
2012,02,29,12,41,5.60
2012,02,29,12,42,5.60
2012,02,29,12,43,5.60
2012,02,29,12,44,5.60
2012,02,29,12,45,5.60
2012,02,29,12,46,5.60
2012,02,29,12,47,5.60
2012,02,29,12,48,5.60
2012,02,29,12,49,5.60
2012,02,29,12,50,5.60
2012,02,29,12,51,5.60
2012,02,29,12,52,5.60
2012,02,29,12,53,5.60
2012,02,29,12,54,5.50
2012,02,29,12,55,5.40
2012,02,29,12,56,5.50
2012,02,29,12,57,5.60
2012,02,29,12,58,5.70
2012,02,29,12,59,5.80
2012,02,29,13,00,5.90
2012,02,29,13,01,5.90
2012,02,29,13,02,5.90
2012,02,29,13,03,6.00
2012,02,29,13,04,6.10
2012,02,29,13,05,6.10
2012,02,29,13,06,6.20
2012,02,29,13,07,6.20
2012,02,29,13,08,6.10
2012,02,29,13,09,6.10
2012,02,29,13,10,6.10
2012,02,29,13,11,6.20
2012,02,29,13,12,6.20
2012,02,29,13,13,6.30
2012,02,29,13,14,6.30
2012,02,29,13,15,6.40
2012,02,29,13,16,6.40
2012,02,29,13,17,6.30
2012,02,29,13,18,6.20
2012,02,29,13,19,6.20
2012,02,29,13,20,6.10
2012,02,29,13,21,6.00
2012,02,29,13,22,5.90
2012,02,29,13,23,5.90
2012,02,29,13,24,5.90
2012,02,29,13,25,5.90
2012,02,29,13,26,5.90
2012,02,29,13,27,5.80
2012,02,29,13,28,5.80
2012,02,29,13,29,5.70
2012,02,29,13,30,5.60
2012,02,29,13,31,5.50
2012,02,29,13,32,5.50
2012,02,29,13,33,5.40
2012,02,29,13,34,5.30
2012,02,29,13,35,5.30
2012,02,29,13,36,5.20
2012,02,29,13,37,5.20
2012,02,29,13,38,5.20
2012,02,29,13,39,5.10
2012,02,29,13,40,5.10
2012,02,29,13,41,5.10
2012,02,29,13,42,5.10
2012,02,29,13,43,5.10
2012,02,29,13,44,5.10
2012,02,29,13,45,5.10
2012,02,29,13,46,5.10
2012,02,29,13,47,5.10
2012,02,29,13,48,5.10
2012,02,29,13,49,5.20
2012,02,29,13,50,5.20
2012,02,29,13,51,5.20
2012,02,29,13,52,5.20
2012,02,29,13,53,5.20
2012,02,29,13,54,5.30
2012,02,29,13,55,5.30
2012,02,29,13,56,5.30
2012,02,29,13,57,5.30
2012,02,29,13,58,5.30
2012,02,29,13,59,5.30
2012,02,29,14,00,5.40
2012,02,29,14,01,5.40
2012,02,29,14,02,5.50
2012,02,29,14,03,5.50
2012,02,29,14,04,5.60
2012,02,29,14,05,5.70
2012,02,29,14,06,5.70
2012,02,29,14,07,5.80
2012,02,29,14,08,5.80
2012,02,29,14,09,5.90
2012,02,29,14,10,5.90
2012,02,29,14,11,5.90
2012,02,29,14,12,6.00
2012,02,29,14,13,6.00
2012,02,29,14,14,6.10
2012,02,29,14,15,6.10
2012,02,29,14,16,6.10
2012,02,29,14,17,6.10
2012,02,29,14,18,6.10
2012,02,29,14,19,6.10
2012,02,29,14,20,6.10
2012,02,29,14,21,6.10
2012,02,29,14,22,6.20
2012,02,29,14,23,6.20
2012,02,29,14,24,6.20
2012,02,29,14,25,6.30
2012,02,29,14,26,6.30
2012,02,29,14,27,6.30
2012,02,29,14,28,6.30
2012,02,29,14,29,6.30
2012,02,29,14,30,6.20
2012,02,29,14,31,6.20
2012,02,29,14,32,6.20
2012,02,29,14,33,6.10
2012,02,29,14,34,6.00
2012,02,29,14,35,6.00
2012,02,29,14,36,5.90
2012,02,29,14,37,5.90
2012,02,29,14,38,5.90
2012,02,29,14,39,5.90
2012,02,29,14,40,6.00
2012,02,29,14,41,6.10
2012,02,29,14,42,6.10
2012,02,29,14,43,6.20
2012,02,29,14,44,6.20
2012,02,29,14,45,6.20
2012,02,29,14,46,6.20
2012,02,29,14,47,6.20
2012,02,29,14,48,6.10
2012,02,29,14,49,6.10
2012,02,29,14,50,6.00
2012,02,29,14,51,6.00
2012,02,29,14,52,6.00
2012,02,29,14,53,5.90
2012,02,29,14,54,5.90
2012,02,29,14,55,5.90
2012,02,29,14,56,5.80
2012,02,29,14,57,5.80
2012,02,29,14,58,5.80
2012,02,29,14,59,5.80
2012,02,29,15,00,5.80
2012,02,29,15,01,5.80
2012,02,29,15,02,5.80
2012,02,29,15,03,5.80
2012,02,29,15,04,5.80
2012,02,29,15,05,5.80
2012,02,29,15,06,5.80
2012,02,29,15,07,5.80
2012,02,29,15,08,5.70
2012,02,29,15,09,5.70
2012,02,29,15,10,5.70
2012,02,29,15,11,5.70
2012,02,29,15,12,5.70
2012,02,29,15,13,5.70
2012,02,29,15,14,5.70
2012,02,29,15,15,5.70
2012,02,29,15,16,5.70
2012,02,29,15,17,5.70
2012,02,29,15,18,5.70
2012,02,29,15,19,5.70
2012,02,29,15,20,5.70
2012,02,29,15,21,5.70
2012,02,29,15,22,5.70
2012,02,29,15,23,5.80
2012,02,29,15,24,5.80
2012,02,29,15,25,5.80
2012,02,29,15,26,5.80
2012,02,29,15,27,5.90
2012,02,29,15,28,5.90
2012,02,29,15,29,6.00
2012,02,29,15,30,6.00
2012,02,29,15,31,6.10
2012,02,29,15,32,6.10
2012,02,29,15,33,6.20
2012,02,29,15,34,6.20
2012,02,29,15,35,6.10
2012,02,29,15,36,6.00
2012,02,29,15,37,5.90
2012,02,29,15,38,5.80
2012,02,29,15,39,5.80
2012,02,29,15,40,5.70
2012,02,29,15,41,5.70
2012,02,29,15,42,5.60
2012,02,29,15,43,5.50
2012,02,29,15,44,5.50
2012,02,29,15,45,5.50
2012,02,29,15,46,5.40
2012,02,29,15,47,5.40
2012,02,29,15,48,5.50
2012,02,29,15,49,5.40
2012,02,29,15,50,5.40
2012,02,29,15,51,5.40
2012,02,29,15,52,5.40
2012,02,29,15,53,5.40
2012,02,29,15,54,5.40
2012,02,29,15,55,5.50
2012,02,29,15,56,5.50
2012,02,29,15,57,5.60
2012,02,29,15,58,5.60
2012,02,29,15,59,5.60
2012,02,29,16,00,5.60
2012,02,29,16,01,5.50
2012,02,29,16,02,5.50
2012,02,29,16,03,5.40
2012,02,29,16,04,5.40
2012,02,29,16,05,5.30
2012,02,29,16,06,5.30
2012,02,29,16,07,5.30
2012,02,29,16,08,5.30
2012,02,29,16,09,5.30
2012,02,29,16,10,5.20
2012,02,29,16,11,5.20
2012,02,29,16,12,5.20
2012,02,29,16,13,5.20
2012,02,29,16,14,5.20
2012,02,29,16,15,5.20
2012,02,29,16,16,5.20
2012,02,29,16,17,5.10
2012,02,29,16,18,5.10
2012,02,29,16,19,5.10
2012,02,29,16,20,5.10
2012,02,29,16,21,5.10
2012,02,29,16,22,5.10
2012,02,29,16,23,5.00
2012,02,29,16,24,5.10
2012,02,29,16,25,5.00
2012,02,29,16,26,5.00
2012,02,29,16,27,5.00
2012,02,29,16,28,5.00
2012,02,29,16,29,5.00
2012,02,29,16,30,5.10
2012,02,29,16,31,5.10
2012,02,29,16,32,5.10
2012,02,29,16,33,5.10
2012,02,29,16,34,5.10
2012,02,29,16,35,5.10
2012,02,29,16,36,5.10
2012,02,29,16,37,5.10
2012,02,29,16,38,5.10
2012,02,29,16,39,5.10
2012,02,29,16,40,5.10
2012,02,29,16,41,5.10
2012,02,29,16,42,5.10
2012,02,29,16,43,5.10
2012,02,29,16,44,5.00
2012,02,29,16,45,5.00
2012,02,29,16,46,5.00
2012,02,29,16,47,5.00
2012,02,29,16,48,4.90
2012,02,29,16,49,4.90
2012,02,29,16,50,4.90
2012,02,29,16,51,4.90
2012,02,29,16,52,4.90
2012,02,29,16,53,4.90
2012,02,29,16,54,4.90
2012,02,29,16,55,4.90
2012,02,29,16,56,4.90
2012,02,29,16,57,4.90
2012,02,29,16,58,4.90
2012,02,29,16,59,4.90
2012,02,29,17,00,4.90
2012,02,29,17,01,4.90
2012,02,29,17,02,4.80
2012,02,29,17,03,4.80
2012,02,29,17,04,4.80
2012,02,29,17,05,4.80
2012,02,29,17,06,4.80
2012,02,29,17,07,4.80
2012,02,29,17,08,4.80
2012,02,29,17,09,4.70
2012,02,29,17,10,4.70
2012,02,29,17,11,4.70
2012,02,29,17,12,4.70
2012,02,29,17,13,4.70
2012,02,29,17,14,4.70
2012,02,29,17,15,4.70
2012,02,29,17,16,4.70
2012,02,29,17,17,4.70
2012,02,29,17,18,4.70
2012,02,29,17,19,4.70
2012,02,29,17,20,4.60
2012,02,29,17,21,4.50
2012,02,29,17,22,4.40
2012,02,29,17,23,4.30
2012,02,29,17,24,4.30
2012,02,29,17,25,4.20
2012,02,29,17,26,4.10
2012,02,29,17,27,4.10
2012,02,29,17,28,4.00
2012,02,29,17,29,3.90
2012,02,29,17,30,3.90
2012,02,29,17,31,3.80
2012,02,29,17,32,3.80
2012,02,29,17,33,3.80
2012,02,29,17,34,3.70
2012,02,29,17,35,3.70
2012,02,29,17,36,3.70
2012,02,29,17,37,3.60
2012,02,29,17,38,3.60
2012,02,29,17,39,3.60
2012,02,29,17,40,3.60
2012,02,29,17,41,3.60
2012,02,29,17,42,3.60
2012,02,29,17,43,3.50
2012,02,29,17,44,3.50
2012,02,29,17,45,3.50
2012,02,29,17,46,3.40
2012,02,29,17,47,3.40
2012,02,29,17,48,3.40
2012,02,29,17,49,3.30
2012,02,29,17,50,3.30
2012,02,29,17,51,3.30
2012,02,29,17,52,3.20
2012,02,29,17,53,3.20
2012,02,29,17,54,3.20
2012,02,29,17,55,3.20
2012,02,29,17,56,3.10
2012,02,29,17,57,3.10
2012,02,29,17,58,3.10
2012,02,29,17,59,3.00
2012,02,29,18,00,3.00
2012,02,29,18,01,3.00
2012,02,29,18,02,3.00
2012,02,29,18,03,3.00
2012,02,29,18,04,2.90